Home > Time Zones > World Clock > Weather > India > Surat > Past weeks

Flag for India Weather past 2 weeks in Surat, Gujarat, India

Now
90 °F

Clear.


Feels Like: 103 °F
Forecast: 79 / 87 °F
Wind: 3 mph from Northwest

Location: Ahmadabad Airport

Current Time: Sep 18, 2014 at 7:34:57 PM

Latest Report: Sep 18, 2014 at 6:10 PM


Visibility: 4 mi

Pressure: 29.71 "Hg

Humidity: 67%

Dew point: 77 °F

Location of SuratLocation

Historic Weather in Surat — Graph

°F

Surat temperature yesterday

Maximum temperature yesterday: 91 °F (at 1:40 PM)
Minimum temperature yesterday: 79 °F (at 2:40 AM)
Average temperature yesterday: 86 °F

Past Weeks' High & Low Weather Summary

 TemperatureHumidityPressure
High93 °F (Sep 6, 3:10 PM)100% (Sep 4, 1:10 AM)29.83 "Hg (Sep 4, 1:10 AM)
Low75 °F (Sep 8, 9:10 PM)56% (Sep 6, 3:10 PM)29.45 "Hg (Sep 4, 3:40 AM)
Average82 °F89%29.69 "Hg
* Reported Sep 3 5:40 PM — Sep 18 6:10 PM, Surat, Weather by CustomWeather, © 2014

Note: Actual official high and low records may vary slightly from our data, if they occured in-between our weather recording intervals... More about our weather records

Advertising

Surat weather history for previous 24 hours

 ConditionsComfort  
Time TempWeatherWind HumidityBarometerVisibility
6:10 PM
Sep 18
90 °FClear.3 mph67%29.71 "Hg4 mi
5:40 PM91 °FPassing clouds.6 mph59%29.71 "Hg4 mi
5:10 PM91 °FPassing clouds.6 mph63%29.71 "Hg4 mi
4:40 PM93 °FPassing clouds.6 mph59%29.71 "Hg4 mi
4:10 PM93 °FPassing clouds.6 mph59%29.71 "Hg4 mi
3:40 PM93 °FPassing clouds.6 mph59%29.71 "Hg4 mi
3:10 PM93 °FScattered clouds.8 mph59%29.71 "Hg4 mi
2:40 PM93 °FScattered clouds.6 mph63%29.71 "Hg4 mi
1:40 PM91 °FScattered clouds.6 mph67%29.74 "Hg4 mi
1:10 PM91 °FScattered clouds.6 mph67%29.74 "Hg3 mi
12:40 PM91 °FScattered clouds.8 mph63%29.74 "Hg3 mi
12:10 PM90 °FScattered clouds.8 mph67%29.77 "Hg3 mi
11:40 AM90 °FScattered clouds.7 mph67%29.77 "Hg3 mi
11:10 AM88 °FHaze.8 mph70%29.80 "Hg3 mi
10:40 AM88 °FHaze.7 mph66%29.80 "Hg3 mi
10:10 AM86 °FHaze.7 mph70%29.80 "Hg3 mi
8:40 AM82 °FFog.6 mph84%29.80 "Hg2 mi
8:10 AM81 °FFog.7 mph89%29.77 "Hg2 mi
7:40 AM81 °FFog.6 mph89%29.77 "Hg2 mi
7:10 AM79 °FFog.3 mph94%29.77 "Hg2 mi
6:40 AM79 °FFog.5 mph94%29.74 "Hg2 mi
6:10 AM79 °FFog.6 mph94%29.74 "Hg2 mi
5:40 AM79 °FFog.3 mph94%29.74 "Hg2 mi
5:10 AM79 °FFog.5 mph94%29.74 "Hg2 mi
4:40 AM81 °FFog.7 mph94%29.71 "Hg2 mi
4:10 AM81 °FFog.3 mph100%29.71 "Hg2 mi
3:40 AM81 °FFog.5 mph94%29.71 "Hg2 mi
2:10 AM81 °FFog.3 mph89%29.71 "Hg2 mi
1:10 AM82 °FFog.No wind84%29.71 "Hg2 mi
12:40 AM82 °FFog.No wind84%29.71 "Hg2 mi
12:10 AM82 °FFog.No wind89%29.71 "Hg2 mi
11:40 PM
Sep 17
82 °FFog.No wind89%29.71 "Hg2 mi
11:10 PM82 °FPassing clouds.3 mph89%29.71 "Hg2 mi
10:40 PM82 °FPassing clouds.3 mph84%29.71 "Hg2 mi
10:10 PM84 °FPassing clouds.5 mph79%29.71 "Hg2 mi
9:40 PM84 °FPassing clouds.No wind84%29.71 "Hg2 mi
9:10 PM84 °FPassing clouds.No wind84%29.71 "Hg2 mi
8:40 PM86 °FPassing clouds.No wind75%29.71 "Hg2 mi
8:10 PM86 °FPassing clouds.No wind75%29.68 "Hg2 mi
7:40 PM86 °FPassing clouds.3 mph75%29.68 "Hg2 mi
Weather by CustomWeather, © 2014

See weather overviewHow to use our weather pages